| time (UTC) | temp C | wind direction | speed KPH | gust KPH | rain 1hr cm | rain 24hr cm | rain mn cm | humidity % | barometer mb |
| 20260509093503 | 23 | 191 | 1.6 | 3.2 | 0.05 | 0.05 | 0.05 | 93 | 1011.6 |
| 20260509093003 | 23 | 191 | 0.0 | 3.2 | 0.05 | 0.05 | 0.05 | 93 | 1011.6 |
| 20260509092503 | 23 | 191 | 0.0 | 1.6 | 0.05 | 0.05 | 0.05 | 92 | 1011.6 |
| 20260509092024 | 23 | 0 | 0.0 | 0.0 | 0.05 | 0.05 | 0.05 | 92 | 1011.4 |
| 20260509091503 | 23 | 191 | 0.0 | 3.2 | 0.03 | 0.03 | 0.03 | 92 | 1011.3 |
| 20260509091003 | 23 | 191 | 0.0 | 6.4 | 0.03 | 0.03 | 0.03 | 92 | 1011.2 |
| 20260509090524 | 23 | 191 | 0.0 | 6.4 | 0.03 | 0.03 | 0.03 | 92 | 1011.3 |
| 20260509090003 | 23 | 191 | 0.0 | 3.2 | 0.03 | 0.03 | 0.03 | 92 | 1011.3 |
| 20260509085503 | 23 | 191 | 0.0 | 3.2 | 0.03 | 0.03 | 0.03 | 92 | 1011.4 |
| 20260509085003 | 23 | 191 | 0.0 | 3.2 | 0.03 | 0.03 | 0.03 | 92 | 1011.4 |
| 20260509084504 | 23 | 191 | 0.0 | 3.2 | 0.00 | 0.00 | 0.00 | 92 | 1011.5 |
| 20260509084004 | 23 | 191 | 1.6 | 6.4 | 0.00 | 0.00 | 0.00 | 92 | 1011.5 |
| 20260509083504 | 23 | 191 | 1.6 | 8.0 | 0.00 | 0.00 | 0.00 | 92 | 1011.5 |
| 20260509083025 | 23 | 191 | 1.6 | 8.0 | 0.00 | 0.00 | 0.00 | 92 | 1011.6 |
| 20260509082504 | 23 | 192 | 1.6 | 9.7 | 0.00 | 0.00 | 0.00 | 92 | 1011.6 |
| 20260509082004 | 23 | 194 | 1.6 | 9.7 | 0.00 | 0.00 | 0.00 | 92 | 1011.5 |
| 20260509081525 | 23 | 195 | 1.6 | 6.4 | 0.00 | 0.00 | 0.00 | 92 | 1011.6 |
| 20260509081004 | 23 | 195 | 0.0 | 3.2 | 0.00 | 0.00 | 0.00 | 92 | 1011.8 |
| 20260509080504 | 23 | 195 | 0.0 | 3.2 | 0.00 | 0.00 | 0.00 | 92 | 1011.6 |
| 20260509080004 | 23 | 195 | 0.0 | 1.6 | 0.00 | 0.00 | 0.00 | 92 | 1011.6 |
| 20260509075504 | 23 | 195 | 0.0 | 6.4 | 0.00 | 0.00 | 0.00 | 92 | 1011.4 |
| 20260509075004 | 23 | 195 | 1.6 | 6.4 | 0.00 | 0.00 | 0.00 | 92 | 1011.4 |
| 20260509074504 | 23 | 195 | 1.6 | 6.4 | 0.00 | 0.00 | 0.00 | 92 | 1011.4 |
| 20260509074004 | 23 | 195 | 1.6 | 6.4 | 0.00 | 0.00 | 0.00 | 92 | 1011.5 |
| 20260509073504 | 23 | 195 | 1.6 | 3.2 | 0.00 | 0.00 | 0.00 | 91 | 1011.5 |
| 20260509073004 | 23 | 195 | 0.0 | 3.2 | 0.00 | 0.00 | 0.00 | 91 | 1011.6 |
| 20260509072504 | 23 | 195 | 0.0 | 3.2 | 0.00 | 0.00 | 0.00 | 91 | 1011.6 |
| 20260509072004 | 23 | 195 | 0.0 | 6.4 | 0.00 | 0.00 | 0.00 | 91 | 1011.7 |
| 20260509071525 | 23 | 195 | 1.6 | 6.4 | 0.00 | 0.00 | 0.00 | 91 | 1011.7 |
| 20260509071004 | 23 | 195 | 3.2 | 8.0 | 0.00 | 0.00 | 0.00 | 91 | 1011.7 |
| 20260509070504 | 23 | 195 | 3.2 | 8.0 | 0.00 | 0.00 | 0.00 | 91 | 1011.8 |
| 20260509070004 | 23 | 195 | 3.2 | 8.0 | 0.00 | 0.00 | 0.00 | 91 | 1011.8 |
| 20260509065504 | 23 | 176 | 6.4 | 11.3 | 0.00 | 0.00 | 0.00 | 91 | 1011.9 |
| 20260509065003 | 23 | 152 | 6.4 | 11.3 | 0.00 | 0.00 | 0.00 | 91 | 1011.7 |
| 20260509064504 | 23 | 143 | 3.2 | 11.3 | 0.00 | 0.00 | 0.00 | 91 | 1011.5 |
| 20260509064003 | 23 | 143 | 3.2 | 16.1 | 0.00 | 0.00 | 0.00 | 91 | 1011.6 |
| 20260509063504 | 23 | 153 | 3.2 | 16.1 | 0.00 | 0.00 | 0.00 | 91 | 1011.3 |
| 20260509063025 | 23 | 175 | 3.2 | 8.0 | 0.00 | 0.00 | 0.00 | 91 | 1011.3 |
| 20260509062504 | 23 | 170 | 6.4 | 16.1 | 0.00 | 0.00 | 0.00 | 91 | 1011.3 |
| 20260509062004 | 23 | 173 | 8.0 | 16.1 | 0.00 | 0.00 | 0.00 | 91 | 1011.5 |
| 20260509061504 | 23 | 179 | 8.0 | 17.7 | 0.00 | 0.00 | 0.00 | 91 | 1011.5 |
| 20260509061004 | 23 | 174 | 9.7 | 17.7 | 0.00 | 0.00 | 0.00 | 91 | 1011.6 |
| 20260509060504 | 23 | 168 | 9.7 | 20.9 | 0.00 | 0.00 | 0.00 | 90 | 1011.6 |
| 20260509060004 | 23 | 167 | 11.3 | 22.5 | 0.00 | 0.00 | 0.00 | 90 | 1011.4 |
| 20260509055525 | 23 | 159 | 11.3 | 27.4 | 0.00 | 0.00 | 0.00 | 90 | 1011.4 |
| 20260509055004 | 23 | 149 | 9.7 | 27.4 | 0.00 | 0.00 | 0.00 | 90 | 1011.2 |
| 20260509054504 | 23 | 152 | 9.7 | 22.5 | 0.00 | 0.00 | 0.00 | 90 | 1011.4 |
| 20260509054004 | 23 | 155 | 9.7 | 20.9 | 0.00 | 0.00 | 0.00 | 90 | 1011.5 |
| 20260509053504 | 23 | 164 | 8.0 | 17.7 | 0.00 | 0.00 | 0.00 | 90 | 1011.5 |
| 20260509053004 | 23 | 168 | 8.0 | 20.9 | 0.00 | 0.00 | 0.00 | 90 | 1011.5 |
| 20260509052504 | 23 | 169 | 8.0 | 20.9 | 0.00 | 0.00 | 0.00 | 90 | 1011.5 |
| 20260509052025 | 23 | 154 | 6.4 | 16.1 | 0.00 | 0.00 | 0.00 | 90 | 1011.5 |
| 20260509051504 | 23 | 128 | 6.4 | 11.3 | 0.00 | 0.00 | 0.00 | 90 | 1011.3 |
| 20260509051004 | 23 | 126 | 3.2 | 11.3 | 0.00 | 0.00 | 0.00 | 89 | 1011.2 |
| 20260509050524 | 23 | 125 | 3.2 | 9.7 | 0.00 | 0.00 | 0.00 | 89 | 1011.1 |
| 20260509050004 | 23 | 125 | 3.2 | 9.7 | 0.00 | 0.00 | 0.00 | 89 | 1011.2 |
| 20260509045503 | 23 | 125 | 6.4 | 11.3 | 0.00 | 0.00 | 0.00 | 89 | 1011.1 |
| 20260509045003 | 23 | 125 | 6.4 | 11.3 | 0.00 | 0.00 | 0.00 | 88 | 1011.0 |
| 20260509044504 | 23 | 126 | 6.4 | 11.3 | 0.00 | 0.00 | 0.00 | 88 | 1011.1 |
| 20260509044003 | 23 | 126 | 6.4 | 12.9 | 0.00 | 0.00 | 0.00 | 88 | 1011.0 |
| 20260509043504 | 23 | 126 | 6.4 | 12.9 | 0.00 | 0.00 | 0.00 | 88 | 1011.0 |
| 20260509043025 | 23 | 126 | 6.4 | 12.9 | 0.00 | 0.00 | 0.00 | 88 | 1011.1 |
| 20260509042503 | 23 | 126 | 6.4 | 9.7 | 0.00 | 0.00 | 0.00 | 88 | 1011.3 |
| 20260509042025 | 23 | 126 | 6.4 | 9.7 | 0.00 | 0.00 | 0.00 | 88 | 1011.3 |
| 20260509041503 | 23 | 126 | 6.4 | 9.7 | 0.00 | 0.00 | 0.00 | 88 | 1011.3 |
| 20260509041003 | 23 | 126 | 3.2 | 8.0 | 0.00 | 0.00 | 0.00 | 87 | 1011.5 |
| 20260509040504 | 23 | 126 | 3.2 | 8.0 | 0.00 | 0.00 | 0.00 | 87 | 1011.5 |
| 20260509040004 | 23 | 126 | 3.2 | 6.4 | 0.00 | 0.00 | 0.00 | 87 | 1011.6 |
| 20260509035504 | 23 | 126 | 3.2 | 6.4 | 0.00 | 0.00 | 0.00 | 87 | 1011.6 |
| 20260509035004 | 23 | 126 | 1.6 | 6.4 | 0.00 | 0.00 | 0.00 | 87 | 1011.7 |
| 20260509034503 | 23 | 126 | 1.6 | 6.4 | 0.00 | 0.00 | 0.00 | 87 | 1011.6 |
| 20260509034004 | 23 | 126 | 1.6 | 6.4 | 0.00 | 0.00 | 0.00 | 87 | 1011.6 |
| 20260509033524 | 23 | 126 | 1.6 | 6.4 | 0.00 | 0.00 | 0.00 | 87 | 1011.6 |
| 20260509033025 | 23 | 126 | 3.2 | 8.0 | 0.00 | 0.00 | 0.00 | 87 | 1011.4 |
| 20260509032504 | 23 | 126 | 3.2 | 9.7 | 0.00 | 0.00 | 0.00 | 87 | 1011.4 |
| 20260509032004 | 23 | 126 | 3.2 | 9.7 | 0.00 | 0.00 | 0.00 | 87 | 1011.3 |
| 20260509031504 | 23 | 126 | 6.4 | 12.9 | 0.00 | 0.00 | 0.00 | 86 | 1011.2 |
| 20260509031004 | 23 | 127 | 6.4 | 12.9 | 0.00 | 0.00 | 0.00 | 85 | 1011.0 |
| 20260509030503 | 23 | 129 | 3.2 | 9.7 | 0.00 | 0.00 | 0.00 | 84 | 1011.0 |
| 20260509030003 | 23 | 129 | 1.6 | 6.4 | 0.00 | 0.00 | 0.00 | 83 | 1011.1 |
| 20260509025504 | 23 | 129 | 3.2 | 6.4 | 0.00 | 0.00 | 0.00 | 83 | 1011.0 |
| 20260509025003 | 23 | 129 | 1.6 | 6.4 | 0.00 | 0.00 | 0.00 | 83 | 1011.0 |
| 20260509024503 | 23 | 129 | 0.0 | 3.2 | 0.00 | 0.00 | 0.00 | 82 | 1011.0 |
| 20260509024004 | 23 | 0 | 0.0 | 0.0 | 0.00 | 0.00 | 0.00 | 82 | 1011.1 |
| 20260509023503 | 23 | 0 | 0.0 | 0.0 | 0.00 | 0.00 | 0.00 | 82 | 1011.0 |
| 20260509023024 | 24 | 0 | 0.0 | 0.0 | 0.00 | 0.00 | 0.00 | 82 | 1011.0 |
| 20260509022503 | 24 | 129 | 0.0 | 3.2 | 0.00 | 0.00 | 0.00 | 82 | 1010.9 |
| 20260509022025 | 24 | 129 | 0.0 | 3.2 | 0.00 | 0.00 | 0.00 | 82 | 1010.8 |
| 20260509021504 | 24 | 129 | 1.6 | 6.4 | 0.00 | 0.00 | 0.00 | 82 | 1010.6 |
| 20260509021004 | 24 | 129 | 1.6 | 8.0 | 0.00 | 0.00 | 0.00 | 82 | 1010.5 |
| 20260509020503 | 24 | 129 | 1.6 | 8.0 | 0.00 | 0.00 | 0.00 | 82 | 1010.3 |
| 20260509020025 | 24 | 129 | 3.2 | 9.7 | 0.00 | 0.00 | 0.00 | 82 | 1010.2 |
| 20260509015503 | 24 | 129 | 3.2 | 9.7 | 0.00 | 0.00 | 0.00 | 82 | 1010.2 |
| 20260509015003 | 25 | 129 | 6.4 | 9.7 | 0.00 | 0.00 | 0.00 | 82 | 1010.1 |
| 20260509014504 | 25 | 129 | 6.4 | 11.3 | 0.00 | 0.00 | 0.00 | 82 | 1010.1 |
| 20260509014003 | 25 | 129 | 6.4 | 11.3 | 0.00 | 0.00 | 0.00 | 81 | 1010.1 |
| 20260509013503 | 25 | 130 | 3.2 | 9.7 | 0.00 | 0.00 | 0.00 | 81 | 1010.2 |
| 20260509013003 | 25 | 130 | 6.4 | 9.7 | 0.00 | 0.00 | 0.00 | 81 | 1010.2 |
| 20260509012503 | 25 | 129 | 6.4 | 12.9 | 0.00 | 0.00 | 0.00 | 81 | 1010.2 |
| 20260509012004 | 25 | 128 | 6.4 | 12.9 | 0.00 | 0.00 | 0.00 | 81 | 1010.2 |
| 20260509011503 | 25 | 128 | 6.4 | 12.9 | 0.00 | 0.00 | 0.00 | 80 | 1010.3 |
| 20260509011003 | 25 | 129 | 3.2 | 12.9 | 0.00 | 0.00 | 0.00 | 80 | 1010.2 |
| 20260509010503 | 25 | 129 | 3.2 | 9.7 | 0.00 | 0.00 | 0.00 | 80 | 1010.1 |
| 20260509010004 | 25 | 129 | 6.4 | 11.3 | 0.00 | 0.00 | 0.00 | 79 | 1010.1 |
| 20260509005503 | 25 | 129 | 6.4 | 11.3 | 0.00 | 0.00 | 0.00 | 79 | 1010.2 |
| 20260509005003 | 25 | 129 | 6.4 | 11.3 | 0.00 | 0.00 | 0.00 | 79 | 1010.1 |
| 20260509004503 | 25 | 128 | 6.4 | 11.3 | 0.00 | 0.00 | 0.00 | 79 | 1010.1 |
| 20260509004003 | 26 | 128 | 6.4 | 11.3 | 0.00 | 0.00 | 0.00 | 78 | 1010.1 |
| 20260509003503 | 26 | 129 | 6.4 | 11.3 | 0.00 | 0.00 | 0.00 | 78 | 1010.0 |
| 20260509003003 | 26 | 129 | 3.2 | 11.3 | 0.00 | 0.00 | 0.00 | 78 | 1010.1 |
| 20260509002503 | 26 | 128 | 3.2 | 11.3 | 0.00 | 0.00 | 0.00 | 77 | 1010.1 |
| 20260509002003 | 26 | 128 | 3.2 | 9.7 | 0.00 | 0.00 | 0.00 | 77 | 1010.1 |
| 20260509001503 | 26 | 123 | 6.4 | 12.9 | 0.00 | 0.00 | 0.00 | 77 | 1010.0 |
| 20260509001003 | 26 | 122 | 6.4 | 12.9 | 0.00 | 0.00 | 0.00 | 76 | 1010.1 |
| 20260509000503 | 26 | 122 | 8.0 | 16.1 | 0.00 | 0.00 | 0.00 | 76 | 1010.1 |
| 20260509000003 | 26 | 121 | 8.0 | 16.1 | 0.00 | 0.00 | 0.00 | 76 | 1010.1 |
| 20260508235503 | 26 | 120 | 8.0 | 17.7 | 0.00 | 0.00 | 0.00 | 75 | 1010.0 |
| 20260508235003 | 26 | 124 | 8.0 | 19.3 | 0.00 | 0.00 | 0.00 | 75 | 1010.0 |
| 20260508234503 | 26 | 139 | 8.0 | 19.3 | 0.00 | 0.00 | 0.00 | 75 | 1009.9 |
| 20260508234024 | 26 | 142 | 8.0 | 17.7 | 0.00 | 0.00 | 0.00 | 75 | 1010.0 |
| 20260508233503 | 26 | 133 | 8.0 | 17.7 | 0.00 | 0.00 | 0.00 | 75 | 1010.0 |
| 20260508233024 | 26 | 144 | 6.4 | 12.9 | 0.00 | 0.00 | 0.00 | 75 | 1009.9 |
| 20260508232504 | 26 | 154 | 8.0 | 16.1 | 0.00 | 0.00 | 0.00 | 75 | 1010.0 |
| 20260508232003 | 26 | 155 | 8.0 | 16.1 | 0.00 | 0.00 | 0.00 | 75 | 1010.0 |
| 20260508231503 | 26 | 160 | 8.0 | 16.1 | 0.00 | 0.00 | 0.00 | 74 | 1010.1 |
| 20260508231003 | 27 | 157 | 8.0 | 12.9 | 0.00 | 0.00 | 0.00 | 74 | 1010.0 |
| 20260508230524 | 27 | 151 | 8.0 | 12.9 | 0.00 | 0.00 | 0.00 | 74 | 1010.2 |
| 20260508230004 | 27 | 143 | 8.0 | 16.1 | 0.00 | 0.00 | 0.00 | 74 | 1010.2 |
| 20260508225503 | 27 | 141 | 8.0 | 16.1 | 0.00 | 0.00 | 0.00 | 73 | 1010.1 |
| 20260508225003 | 27 | 136 | 8.0 | 16.1 | 0.00 | 0.00 | 0.00 | 73 | 1010.2 |
| 20260508224503 | 27 | 126 | 8.0 | 16.1 | 0.00 | 0.00 | 0.00 | 74 | 1010.1 |
| 20260508224003 | 27 | 126 | 8.0 | 17.7 | 0.00 | 0.00 | 0.00 | 73 | 1010.1 |
| 20260508223524 | 27 | 138 | 8.0 | 17.7 | 0.00 | 0.00 | 0.00 | 73 | 1010.1 |
| 20260508223024 | 27 | 151 | 8.0 | 16.1 | 0.00 | 0.00 | 0.00 | 72 | 1010.1 |
| 20260508222503 | 27 | 151 | 8.0 | 17.7 | 0.00 | 0.00 | 0.00 | 71 | 1010.1 |
| 20260508222003 | 27 | 145 | 8.0 | 17.7 | 0.00 | 0.00 | 0.00 | 70 | 1010.1 |
| 20260508221524 | 27 | 128 | 8.0 | 20.9 | 0.00 | 0.00 | 0.00 | 70 | 1010.1 |
| 20260508221024 | 28 | 124 | 9.7 | 20.9 | 0.00 | 0.00 | 0.00 | 70 | 1010.3 |
| 20260508220503 | 28 | 135 | 8.0 | 20.9 | 0.00 | 0.00 | 0.00 | 70 | 1010.3 |
| 20260508220003 | 28 | 140 | 8.0 | 16.1 | 0.00 | 0.00 | 0.00 | 69 | 1010.4 |
| 20260508215524 | 28 | 131 | 6.4 | 12.9 | 0.00 | 0.00 | 0.00 | 70 | 1010.3 |
| 20260508215003 | 28 | 134 | 8.0 | 16.1 | 0.00 | 0.00 | 0.00 | 71 | 1010.5 |
| 20260508214503 | 27 | 136 | 8.0 | 16.1 | 0.00 | 0.00 | 0.00 | 71 | 1010.4 |
| 20260508214003 | 27 | 121 | 6.4 | 16.1 | 0.00 | 0.00 | 0.00 | 70 | 1010.4 |
| 20260508213503 | 27 | 121 | 8.0 | 12.9 | 0.00 | 0.00 | 0.00 | 70 | 1010.5 |
| 20260508213003 | 27 | 131 | 6.4 | 12.9 | 0.00 | 0.00 | 0.00 | 70 | 1010.5 |
| 20260508212503 | 27 | 137 | 6.4 | 17.7 | 0.00 | 0.00 | 0.00 | 70 | 1010.6 |
| 20260508212024 | 27 | 135 | 6.4 | 17.7 | 0.00 | 0.00 | 0.00 | 70 | 1010.6 |
| 20260508211503 | 27 | 128 | 8.0 | 16.1 | 0.00 | 0.00 | 0.00 | 70 | 1010.8 |
| 20260508211003 | 27 | 149 | 8.0 | 17.7 | 0.00 | 0.00 | 0.00 | 72 | 1010.9 |
| 20260508210524 | 27 | 158 | 8.0 | 17.7 | 0.00 | 0.00 | 0.00 | 71 | 1011.0 |
| 20260508210003 | 27 | 146 | 6.4 | 17.7 | 0.00 | 0.00 | 0.00 | 72 | 1011.1 |
| 20260508205503 | 27 | 127 | 8.0 | 17.7 | 0.00 | 0.00 | 0.00 | 72 | 1011.1 |
| 20260508205024 | 27 | 137 | 6.4 | 17.7 | 0.00 | 0.00 | 0.00 | 72 | 1011.2 |
| 20260508204503 | 27 | 133 | 8.0 | 20.9 | 0.00 | 0.00 | 0.00 | 71 | 1011.2 |
| 20260508204004 | 27 | 109 | 8.0 | 20.9 | 0.00 | 0.00 | 0.00 | 72 | 1011.3 |
| 20260508203504 | 27 | 105 | 8.0 | 19.3 | 0.00 | 0.00 | 0.00 | 70 | 1011.4 |
| 20260508203025 | 27 | 104 | 8.0 | 19.3 | 0.00 | 0.00 | 0.00 | 70 | 1011.4 |
| 20260508202504 | 27 | 114 | 8.0 | 16.1 | 0.00 | 0.00 | 0.00 | 71 | 1011.5 |
| 20260508202004 | 27 | 126 | 8.0 | 16.1 | 0.00 | 0.00 | 0.00 | 70 | 1011.4 |
| 20260508201504 | 27 | 130 | 8.0 | 16.1 | 0.00 | 0.00 | 0.00 | 70 | 1011.4 |
| 20260508201025 | 27 | 133 | 8.0 | 16.1 | 0.00 | 0.00 | 0.00 | 70 | 1011.5 |
| 20260508200504 | 27 | 136 | 8.0 | 17.7 | 0.00 | 0.00 | 0.00 | 70 | 1011.5 |
| 20260508200004 | 27 | 121 | 9.7 | 19.3 | 0.00 | 0.00 | 0.00 | 71 | 1011.6 |
| 20260508195504 | 27 | 112 | 8.0 | 19.3 | 0.00 | 0.00 | 0.00 | 71 | 1011.6 |
| 20260508195004 | 27 | 116 | 8.0 | 17.7 | 0.00 | 0.00 | 0.00 | 71 | 1011.6 |
| 20260508194504 | 27 | 130 | 8.0 | 16.1 | 0.00 | 0.00 | 0.00 | 70 | 1011.8 |
| 20260508194003 | 27 | 134 | 8.0 | 16.1 | 0.00 | 0.00 | 0.00 | 70 | 1011.9 |
| 20260508193504 | 27 | 134 | 6.4 | 12.9 | 0.00 | 0.00 | 0.00 | 70 | 1012.0 |
| 20260508193004 | 27 | 127 | 8.0 | 16.1 | 0.00 | 0.00 | 0.00 | 69 | 1012.0 |
| 20260508192525 | 27 | 118 | 8.0 | 16.1 | 0.00 | 0.00 | 0.00 | 70 | 1012.1 |
| 20260508192004 | 27 | 108 | 6.4 | 16.1 | 0.00 | 0.00 | 0.00 | 70 | 1012.1 |
| 20260508191504 | 27 | 91 | 6.4 | 16.1 | 0.00 | 0.00 | 0.00 | 70 | 1012.2 |
| 20260508191004 | 26 | 95 | 6.4 | 17.7 | 0.00 | 0.00 | 0.00 | 71 | 1012.2 |
| 20260508190504 | 26 | 109 | 6.4 | 17.7 | 0.00 | 0.00 | 0.00 | 70 | 1012.3 |
| 20260508190004 | 26 | 113 | 3.2 | 9.7 | 0.00 | 0.00 | 0.00 | 70 | 1012.4 |
| 20260508185504 | 26 | 113 | 6.4 | 12.9 | 0.00 | 0.00 | 0.00 | 69 | 1012.5 |
| 20260508185004 | 26 | 114 | 6.4 | 16.1 | 0.00 | 0.00 | 0.00 | 69 | 1012.8 |
| 20260508184504 | 26 | 114 | 6.4 | 16.1 | 0.00 | 0.00 | 0.00 | 69 | 1012.7 |
| 20260508184004 | 26 | 113 | 3.2 | 16.1 | 0.00 | 0.00 | 0.00 | 70 | 1012.8 |
| 20260508183504 | 26 | 113 | 3.2 | 8.0 | 0.00 | 0.00 | 0.00 | 69 | 1012.7 |
| 20260508183004 | 26 | 111 | 6.4 | 12.9 | 0.00 | 0.00 | 0.00 | 70 | 1012.9 |
| 20260508182525 | 26 | 101 | 6.4 | 12.9 | 0.00 | 0.00 | 0.00 | 70 | 1012.8 |
| 20260508182004 | 25 | 101 | 6.4 | 12.9 | 0.00 | 0.00 | 0.00 | 70 | 1013.0 |
| 20260508181504 | 26 | 120 | 8.0 | 16.1 | 0.00 | 0.00 | 0.00 | 71 | 1013.0 |
| 20260508181025 | 25 | 126 | 6.4 | 16.1 | 0.00 | 0.00 | 0.00 | 71 | 1013.1 |
| 20260508180503 | 25 | 126 | 6.4 | 12.9 | 0.00 | 0.00 | 0.00 | 71 | 1013.2 |
| 20260508180004 | 25 | 130 | 8.0 | 17.7 | 0.00 | 0.00 | 0.00 | 72 | 1013.4 |
| 20260508175525 | 25 | 124 | 8.0 | 17.7 | 0.00 | 0.00 | 0.00 | 71 | 1013.4 |
| 20260508175004 | 25 | 112 | 8.0 | 17.7 | 0.00 | 0.00 | 0.00 | 71 | 1013.4 |
| 20260508174524 | 25 | 107 | 9.7 | 17.7 | 0.00 | 0.00 | 0.00 | 71 | 1013.4 |
| 20260508174025 | 25 | 117 | 9.7 | 17.7 | 0.00 | 0.00 | 0.00 | 70 | 1013.5 |
| 20260508173504 | 25 | 118 | 9.7 | 17.7 | 0.00 | 0.00 | 0.00 | 70 | 1013.5 |
| 20260508173004 | 25 | 114 | 8.0 | 17.7 | 0.00 | 0.00 | 0.00 | 70 | 1013.4 |
| 20260508172503 | 25 | 129 | 8.0 | 16.1 | 0.00 | 0.00 | 0.00 | 70 | 1013.5 |
| 20260508172004 | 25 | 133 | 6.4 | 16.1 | 0.00 | 0.00 | 0.00 | 71 | 1013.7 |
| 20260508171504 | 25 | 121 | 3.2 | 12.9 | 0.00 | 0.00 | 0.00 | 71 | 1013.7 |
| 20260508171004 | 25 | 122 | 3.2 | 8.0 | 0.00 | 0.00 | 0.00 | 71 | 1013.8 |
| 20260508170503 | 25 | 108 | 6.4 | 9.7 | 0.00 | 0.00 | 0.00 | 71 | 1013.8 |
| 20260508170004 | 25 | 87 | 6.4 | 12.9 | 0.00 | 0.00 | 0.00 | 71 | 1013.7 |
| 20260508165524 | 25 | 78 | 6.4 | 12.9 | 0.00 | 0.00 | 0.00 | 73 | 1013.6 |
| 20260508165004 | 25 | 32 | 6.4 | 9.7 | 0.00 | 0.00 | 0.00 | 72 | 1013.7 |
| 20260508164525 | 24 | 1 | 6.4 | 9.7 | 0.00 | 0.00 | 0.00 | 72 | 1013.7 |
| 20260508164004 | 24 | 4 | 6.4 | 11.3 | 0.00 | 0.00 | 0.00 | 73 | 1013.9 |
| 20260508163504 | 23 | 32 | 3.2 | 11.3 | 0.00 | 0.00 | 0.00 | 75 | 1013.9 |
| 20260508163004 | 23 | 82 | 3.2 | 9.7 | 0.00 | 0.00 | 0.00 | 75 | 1013.9 |
| 20260508162525 | 23 | 83 | 3.2 | 9.7 | 0.00 | 0.00 | 0.00 | 75 | 1014.0 |
| 20260508162004 | 22 | 85 | 3.2 | 12.9 | 0.00 | 0.00 | 0.00 | 77 | 1014.1 |
| 20260508161504 | 22 | 67 | 3.2 | 12.9 | 0.00 | 0.00 | 0.00 | 76 | 1014.2 |
| 20260508161003 | 22 | 41 | 3.2 | 9.7 | 0.00 | 0.00 | 0.00 | 76 | 1014.3 |
| 20260508160504 | 22 | 38 | 1.6 | 3.2 | 0.00 | 0.00 | 0.00 | 76 | 1014.4 |
| 20260508160004 | 22 | 38 | 1.6 | 3.2 | 0.00 | 0.00 | 0.00 | 76 | 1014.7 |
| 20260508155524 | 22 | 38 | 1.6 | 6.4 | 0.00 | 0.00 | 0.00 | 76 | 1014.8 |
| 20260508155025 | 21 | 38 | 3.2 | 6.4 | 0.00 | 0.00 | 0.00 | 76 | 1014.7 |
| 20260508154504 | 21 | 38 | 3.2 | 8.0 | 0.00 | 0.00 | 0.00 | 76 | 1014.7 |
| 20260508154003 | 21 | 38 | 3.2 | 9.7 | 0.00 | 0.00 | 0.00 | 77 | 1014.8 |
| 20260508153524 | 21 | 38 | 3.2 | 9.7 | 0.00 | 0.00 | 0.00 | 77 | 1014.9 |
| 20260508153004 | 20 | 38 | 3.2 | 8.0 | 0.00 | 0.00 | 0.00 | 77 | 1015.0 |
| 20260508152503 | 20 | 38 | 3.2 | 6.4 | 0.00 | 0.00 | 0.00 | 78 | 1015.0 |
| 20260508152025 | 20 | 38 | 3.2 | 8.0 | 0.00 | 0.00 | 0.00 | 79 | 1015.1 |
| 20260508151503 | 20 | 38 | 1.6 | 8.0 | 0.00 | 0.00 | 0.00 | 79 | 1015.1 |
| 20260508151004 | 19 | 38 | 1.6 | 8.0 | 0.00 | 0.00 | 0.00 | 78 | 1015.2 |
| 20260508150503 | 19 | 38 | 1.6 | 8.0 | 0.00 | 0.00 | 0.00 | 79 | 1015.4 |
| 20260508150004 | 19 | 38 | 3.2 | 8.0 | 0.00 | 0.00 | 0.00 | 78 | 1015.4 |
| 20260508145503 | 18 | 37 | 3.2 | 9.7 | 0.00 | 0.00 | 0.00 | 79 | 1015.4 |
| 20260508145024 | 18 | 35 | 3.2 | 9.7 | 0.00 | 0.00 | 0.00 | 80 | 1015.4 |
| 20260508144504 | 18 | 34 | 3.2 | 8.0 | 0.00 | 0.00 | 0.00 | 79 | 1015.4 |
| 20260508144003 | 18 | 34 | 3.2 | 8.0 | 0.00 | 0.00 | 0.00 | 79 | 1015.3 |
| 20260508143504 | 18 | 34 | 1.6 | 6.4 | 0.00 | 0.00 | 0.00 | 79 | 1015.4 |
| 20260508143003 | 18 | 34 | 1.6 | 6.4 | 0.00 | 0.00 | 0.00 | 80 | 1015.5 |
| 20260508142504 | 18 | 34 | 3.2 | 8.0 | 0.00 | 0.00 | 0.00 | 80 | 1015.4 |
| 20260508142003 | 18 | 34 | 1.6 | 8.0 | 0.00 | 0.00 | 0.00 | 80 | 1015.3 |
| 20260508141504 | 18 | 34 | 1.6 | 8.0 | 0.00 | 0.00 | 0.00 | 81 | 1015.4 |
| 20260508141003 | 18 | 34 | 1.6 | 8.0 | 0.00 | 0.00 | 0.00 | 80 | 1015.4 |
| 20260508140503 | 17 | 34 | 3.2 | 11.3 | 0.00 | 0.00 | 0.00 | 81 | 1015.5 |
| 20260508140004 | 17 | 35 | 6.4 | 11.3 | 0.00 | 0.00 | 0.00 | 81 | 1015.4 |
| 20260508135503 | 17 | 35 | 3.2 | 12.9 | 0.00 | 0.00 | 0.00 | 81 | 1015.3 |
| 20260508135024 | 17 | 32 | 3.2 | 12.9 | 0.00 | 0.00 | 0.00 | 81 | 1015.4 |
| 20260508134503 | 17 | 30 | 6.4 | 12.9 | 0.00 | 0.00 | 0.00 | 81 | 1015.4 |
| 20260508134003 | 17 | 25 | 6.4 | 9.7 | 0.00 | 0.00 | 0.00 | 81 | 1015.5 |
| 20260508133504 | 17 | 352 | 6.4 | 9.7 | 0.00 | 0.00 | 0.00 | 81 | 1015.5 |
| 20260508133024 | 17 | 324 | 6.4 | 11.3 | 0.00 | 0.00 | 0.00 | 81 | 1015.5 |
| 20260508132524 | 17 | 319 | 3.2 | 11.3 | 0.00 | 0.00 | 0.00 | 81 | 1015.5 |
| 20260508132004 | 17 | 318 | 3.2 | 11.3 | 0.00 | 0.00 | 0.00 | 81 | 1015.6 |
| 20260508131524 | 17 | 318 | 1.6 | 11.3 | 0.00 | 0.00 | 0.00 | 82 | 1015.7 |
| 20260508131003 | 17 | 317 | 1.6 | 9.7 | 0.00 | 0.00 | 0.00 | 82 | 1015.6 |
| 20260508130503 | 17 | 317 | 3.2 | 9.7 | 0.00 | 0.00 | 0.00 | 82 | 1015.5 |
| 20260508130003 | 17 | 317 | 3.2 | 9.7 | 0.00 | 0.00 | 0.00 | 82 | 1015.3 |
| 20260508125525 | 17 | 319 | 3.2 | 11.3 | 0.00 | 0.00 | 0.00 | 81 | 1015.3 |
| 20260508125003 | 17 | 332 | 6.4 | 11.3 | 0.00 | 0.00 | 0.00 | 81 | 1015.5 |
| 20260508124504 | 17 | 338 | 8.0 | 11.3 | 0.00 | 0.00 | 0.00 | 81 | 1015.5 |
| 20260508124003 | 17 | 343 | 6.4 | 11.3 | 0.00 | 0.00 | 0.00 | 81 | 1015.5 |
| 20260508123503 | 17 | 349 | 6.4 | 11.3 | 0.00 | 0.00 | 0.00 | 81 | 1015.7 |
| 20260508123003 | 17 | 349 | 6.4 | 11.3 | 0.00 | 0.00 | 0.00 | 81 | 1015.6 |
| 20260508122503 | 17 | 348 | 6.4 | 11.3 | 0.00 | 0.00 | 0.00 | 81 | 1015.4 |
| 20260508122003 | 17 | 346 | 6.4 | 11.3 | 0.00 | 0.00 | 0.00 | 81 | 1015.4 |
| 20260508121503 | 17 | 344 | 6.4 | 11.3 | 0.00 | 0.00 | 0.00 | 81 | 1015.3 |
| 20260508121024 | 17 | 344 | 3.2 | 12.9 | 0.00 | 0.00 | 0.00 | 81 | 1015.6 |
| 20260508120503 | 17 | 342 | 6.4 | 12.9 | 0.00 | 0.00 | 0.00 | 82 | 1015.7 |
| 20260508120003 | 17 | 339 | 3.2 | 9.7 | 0.00 | 0.00 | 0.00 | 82 | 1015.5 |
| 20260508115503 | 17 | 338 | 3.2 | 8.0 | 0.00 | 0.00 | 0.00 | 82 | 1015.8 |
| 20260508115003 | 17 | 338 | 3.2 | 9.7 | 0.00 | 0.00 | 0.00 | 81 | 1016.1 |
| 20260508114503 | 17 | 338 | 3.2 | 9.7 | 0.00 | 0.00 | 0.00 | 81 | 1016.1 |
| 20260508114003 | 17 | 338 | 1.6 | 6.4 | 0.00 | 0.00 | 0.00 | 81 | 1016.0 |
| 20260508113503 | 17 | 338 | 1.6 | 6.4 | 0.00 | 0.00 | 0.00 | 81 | 1016.1 |
| 20260508113004 | 17 | 338 | 1.6 | 6.4 | 0.00 | 0.00 | 0.00 | 80 | 1016.1 |
| 20260508112503 | 17 | 338 | 0.0 | 6.4 | 0.00 | 0.00 | 0.00 | 80 | 1016.1 |
| 20260508112003 | 17 | 338 | 1.6 | 6.4 | 0.00 | 0.00 | 0.00 | 80 | 1016.2 |
| 20260508111503 | 17 | 338 | 3.2 | 6.4 | 0.00 | 0.00 | 0.00 | 80 | 1016.1 |
| 20260508111003 | 17 | 338 | 3.2 | 8.0 | 0.00 | 0.00 | 0.00 | 80 | 1016.0 |
| 20260508110524 | 17 | 337 | 6.4 | 11.3 | 0.00 | 0.00 | 0.00 | 80 | 1016.0 |
| 20260508110003 | 17 | 339 | 8.0 | 12.9 | 0.00 | 0.00 | 0.00 | 80 | 1016.0 |
| 20260508105503 | 17 | 342 | 6.4 | 12.9 | 0.00 | 0.00 | 0.00 | 80 | 1015.9 |
| 20260508105004 | 17 | 342 | 6.4 | 12.9 | 0.00 | 0.00 | 0.00 | 80 | 1015.8 |
| 20260508104504 | 17 | 337 | 6.4 | 16.1 | 0.00 | 0.00 | 0.00 | 80 | 1015.9 |
| 20260508104003 | 17 | 334 | 3.2 | 16.1 | 0.00 | 0.00 | 0.00 | 80 | 1015.9 |
| 20260508103503 | 17 | 331 | 3.2 | 11.3 | 0.00 | 0.00 | 0.00 | 80 | 1015.9 |
| 20260508103003 | 17 | 329 | 6.4 | 11.3 | 0.00 | 0.00 | 0.00 | 80 | 1016.0 |
| 20260508102503 | 17 | 329 | 8.0 | 16.1 | 0.00 | 0.00 | 0.00 | 80 | 1015.9 |
| 20260508102003 | 17 | 342 | 8.0 | 16.1 | 0.00 | 0.00 | 0.00 | 80 | 1015.8 |
| 20260508101503 | 17 | 358 | 6.4 | 12.9 | 0.00 | 0.00 | 0.00 | 81 | 1015.6 |
| 20260508101024 | 17 | 10 | 3.2 | 11.3 | 0.00 | 0.00 | 0.00 | 81 | 1015.6 |
| 20260508100503 | 17 | 11 | 3.2 | 8.0 | 0.00 | 0.00 | 0.00 | 81 | 1015.5 |
| 20260508100003 | 17 | 11 | 3.2 | 8.0 | 0.00 | 0.00 | 0.00 | 81 | 1015.7 |
| 20260508095503 | 17 | 2 | 3.2 | 12.9 | 0.00 | 0.00 | 0.00 | 81 | 1016.0 |
| 20260508095003 | 17 | 340 | 3.2 | 12.9 | 0.00 | 0.00 | 0.00 | 81 | 1015.8 |
| 20260508094503 | 17 | 321 | 6.4 | 9.7 | 0.00 | 0.00 | 0.00 | 81 | 1015.7 |
| 20260508094003 | 17 | 321 | 3.2 | 9.7 | 0.00 | 0.00 | 0.00 | 82 | 1015.8 |